• In France
  • List of Countries
  • For 7 days
  • Water Temperature
  • Satellite Maps
  • Weather Map
  • Weather Widgets
  • user-avatar
    Login

    Hourly Weather Urchiab

    Today, 21 August, Tuesday

    Time Temperature Precipitation Wind Pressure Humidity
    00:00 +13°C° 0 mm 3 mps 658 mmHg 75%
    01:00 +12°C° 0 mm 3 mps 658 mmHg 74%
    02:00 +12°C° 0 mm 3 mps 658 mmHg 73%
    03:00 +12°C° 0 mm 3 mps 658 mmHg 75%
    04:00 +12°C° 0 mm 3 mps 658 mmHg 74%
    05:00 +13°C° 0 mm 3 mps 658 mmHg 73%
    06:00 +13°C° 0 mm 3 mps 658 mmHg 72%
    07:00 +16°C° 0 mm 3 mps 659 mmHg 65%
    08:00 +19°C° 0 mm 3 mps 659 mmHg 58%
    09:00 +21°C° 0 mm 3 mps 660 mmHg 51%
    10:00 +22°C° 0 mm 3 mps 660 mmHg 50%
    11:00 +23°C° 0 mm 4 mps 660 mmHg 49%
    12:00 +25°C° 0 mm 4 mps 660 mmHg 47%
    13:00 +25°C° 0.1 mm 4 mps 660 mmHg 49%
    14:00 +23°C° 0.1 mm 4 mps 659 mmHg 51%
    15:00 +23°C° 0.1 mm 4 mps 659 mmHg 54%
    16:00 +22°C° 0.1 mm 4 mps 659 mmHg 59%
    17:00 +21°C° 0.1 mm 3 mps 659 mmHg 64%
    18:00 +20°C° 0.1 mm 3 mps 658 mmHg 70%
    19:00 +19°C° 0 mm 3 mps 658 mmHg 73%
    20:00 +17°C° 0 mm 3 mps 658 mmHg 77%
    21:00 +16°C° 0 mm 2 mps 657 mmHg 81%
    22:00 +16°C° 0 mm 2 mps 657 mmHg 79%
    23:00 +16°C° 0 mm 2 mps 657 mmHg 77%

    Tomorrow, 22 August, Wednesday

    Time Temperature Precipitation Wind Pressure Humidity
    00:00 +16°C° 0 mm 2 mps 657 mmHg 75%
    01:00 +16°C° 0 mm 2 mps 657 mmHg 72%
    02:00 +15°C° 0 mm 2 mps 657 mmHg 69%
    03:00 +15°C° 0 mm 2 mps 657 mmHg 66%
    04:00 +16°C° 0 mm 2 mps 657 mmHg 64%
    05:00 +16°C° 0 mm 2 mps 657 mmHg 61%
    06:00 +16°C° 0 mm 2 mps 657 mmHg 59%
    07:00 +18°C° 0 mm 2 mps 658 mmHg 55%
    08:00 +21°C° 0 mm 1 mps 658 mmHg 52%
    09:00 +23°C° 0 mm 1 mps 658 mmHg 48%
    10:00 +24°C° 0 mm 2 mps 658 mmHg 47%
    11:00 +24°C° 0 mm 2 mps 659 mmHg 47%
    12:00 +25°C° 0 mm 2 mps 659 mmHg 47%
    13:00 +25°C° 0.2 mm 3 mps 658 mmHg 49%
    14:00 +25°C° 0.2 mm 3 mps 658 mmHg 51%
    15:00 +25°C° 0.2 mm 3 mps 658 mmHg 53%
    16:00 +24°C° 0.4 mm 2 mps 658 mmHg 58%
    17:00 +23°C° 0.4 mm 2 mps 658 mmHg 64%
    18:00 +22°C° 0.4 mm 1 mps 658 mmHg 69%
    19:00 +21°C° 0.3 mm 1 mps 658 mmHg 72%
    20:00 +20°C° 0.3 mm 1 mps 658 mmHg 75%
    21:00 +18°C° 0.3 mm 2 mps 658 mmHg 77%
    22:00 +18°C° 0.3 mm 2 mps 658 mmHg 77%
    23:00 +17°C° 0.3 mm 2 mps 658 mmHg 77%

    Day after tomorrow, 23 August, Thursday

    Time Temperature Precipitation Wind Pressure Humidity
    00:00 +17°C° 0.3 mm 2 mps 658 mmHg 78%
    01:00 +16°C° 0.1 mm 2 mps 658 mmHg 78%
    02:00 +16°C° 0.1 mm 2 mps 658 mmHg 78%
    03:00 +16°C° 0.1 mm 2 mps 658 mmHg 78%
    04:00 +16°C° 0 mm 2 mps 658 mmHg 77%
    05:00 +16°C° 0 mm 2 mps 658 mmHg 76%
    06:00 +16°C° 0 mm 2 mps 658 mmHg 75%
    07:00 +18°C° 0 mm 2 mps 659 mmHg 68%
    08:00 +20°C° 0 mm 2 mps 659 mmHg 62%
    09:00 +23°C° 0 mm 2 mps 660 mmHg 55%
    10:00 +22°C° 0.1 mm 3 mps 660 mmHg 54%
    11:00 +24°C° 0.1 mm 3 mps 660 mmHg 52%
    12:00 +25°C° 0.1 mm 3 mps 660 mmHg 51%
    13:00 +24°C° 0.4 mm 3 mps 660 mmHg 52%
    14:00 +24°C° 0.4 mm 3 mps 660 mmHg 54%
    15:00 +22°C° 0.4 mm 3 mps 659 mmHg 55%
    16:00 +22°C° 0.1 mm 3 mps 659 mmHg 59%
    17:00 +21°C° 0.1 mm 2 mps 659 mmHg 63%
    18:00 +20°C° 0.1 mm 2 mps 659 mmHg 67%
    19:00 +19°C° 0 mm 2 mps 659 mmHg 72%
    20:00 +18°C° 0 mm 1 mps 659 mmHg 76%
    21:00 +16°C° 0 mm 1 mps 659 mmHg 81%
    22:00 +16°C° 0 mm 1 mps 659 mmHg 80%
    23:00 +16°C° 0 mm 1 mps 659 mmHg 80%

    24 August, Friday

    Time Temperature Precipitation Wind Pressure Humidity
    00:00 +15°C° 0 mm 1 mps 659 mmHg 79%
    01:00 +15°C° 0 mm 1 mps 659 mmHg 79%
    02:00 +15°C° 0 mm 1 mps 659 mmHg 79%
    03:00 +15°C° 0 mm 1 mps 658 mmHg 78%
    04:00 +15°C° 0 mm 1 mps 659 mmHg 78%
    05:00 +15°C° 0 mm 1 mps 659 mmHg 77%
    06:00 +15°C° 0 mm 1 mps 659 mmHg 77%
    07:00 +17°C° 0 mm 2 mps 659 mmHg 71%
    08:00 +19°C° 0 mm 2 mps 660 mmHg 66%
    09:00 +21°C° 0 mm 3 mps 660 mmHg 60%
    10:00 +21°C° 0 mm 3 mps 660 mmHg 59%
    11:00 +22°C° 0 mm 4 mps 660 mmHg 59%
    12:00 +22°C° 0 mm 4 mps 660 mmHg 58%
    13:00 +22°C° 0.1 mm 4 mps 660 mmHg 60%
    14:00 +21°C° 0.1 mm 4 mps 659 mmHg 62%
    15:00 +21°C° 0.1 mm 4 mps 659 mmHg 64%
    16:00 +20°C° 0.1 mm 4 mps 659 mmHg 67%
    17:00 +19°C° 0.1 mm 3 mps 659 mmHg 70%
    18:00 +18°C° 0.1 mm 3 mps 658 mmHg 73%
    19:00 +17°C° 0.1 mm 3 mps 658 mmHg 76%
    20:00 +16°C° 0.1 mm 2 mps 658 mmHg 79%
    21:00 +15°C° 0.1 mm 2 mps 658 mmHg 82%
    22:00 +15°C° 0 mm 2 mps 658 mmHg 80%
    23:00 +15°C° 0 mm 2 mps 658 mmHg 79%

    25 August, Saturday

    Time Temperature Precipitation Wind Pressure Humidity
    00:00 +14°C° 0 mm 2 mps 658 mmHg 78%
    01:00 +14°C° 0 mm 2 mps 658 mmHg 77%
    02:00 +14°C° 0 mm 2 mps 657 mmHg 76%
    03:00 +14°C° 0 mm 2 mps 657 mmHg 75%
    04:00 +14°C° 0 mm 2 mps 657 mmHg 74%
    05:00 +14°C° 0 mm 2 mps 657 mmHg 74%
    06:00 +14°C° 0 mm 2 mps 657 mmHg 73%
    07:00 +16°C° 0 mm 2 mps 658 mmHg 67%
    08:00 +19°C° 0 mm 3 mps 658 mmHg 61%
    09:00 +21°C° 0 mm 3 mps 659 mmHg 56%
    10:00 +21°C° 0 mm 4 mps 659 mmHg 54%
    11:00 +22°C° 0 mm 4 mps 659 mmHg 52%
    12:00 +23°C° 0 mm 4 mps 659 mmHg 51%
    13:00 +23°C° 0 mm 4 mps 659 mmHg 52%
    14:00 +23°C° 0 mm 5 mps 659 mmHg 53%
    15:00 +22°C° 0 mm 5 mps 658 mmHg 54%
    16:00 +21°C° 0 mm 4 mps 658 mmHg 58%
    17:00 +20°C° 0 mm 4 mps 658 mmHg 63%
    18:00 +19°C° 0 mm 4 mps 658 mmHg 67%
    19:00 +18°C° 0 mm 3 mps 658 mmHg 70%
    20:00 +17°C° 0 mm 3 mps 657 mmHg 73%
    21:00 +15°C° 0 mm 2 mps 657 mmHg 76%
    22:00 +15°C° 0 mm 2 mps 657 mmHg 74%
    23:00 +15°C° 0 mm 2 mps 657 mmHg 71%

    26 August, Sunday

    Time Temperature Precipitation Wind Pressure Humidity
    00:00 +15°C° 0 mm 2 mps 657 mmHg 69%
    01:00 +15°C° 0 mm 2 mps 656 mmHg 67%
    02:00 +15°C° 0 mm 2 mps 656 mmHg 65%
    03:00 +14°C° 0 mm 2 mps 656 mmHg 63%
    04:00 +15°C° 0 mm 2 mps 656 mmHg 62%
    05:00 +14°C° 0 mm 3 mps 656 mmHg 60%
    06:00 +14°C° 0 mm 3 mps 656 mmHg 59%
    07:00 +18°C° 0 mm 3 mps 657 mmHg 53%
    08:00 +20°C° 0 mm 3 mps 657 mmHg 46%
    09:00 +24°C° 0 mm 3 mps 658 mmHg 40%
    10:00 +25°C° 0 mm 4 mps 658 mmHg 39%
    11:00 +25°C° 0 mm 4 mps 657 mmHg 39%
    12:00 +26°C° 0 mm 5 mps 657 mmHg 38%
    13:00 +26°C° 0 mm 5 mps 657 mmHg 41%
    14:00 +26°C° 0 mm 5 mps 657 mmHg 43%
    15:00 +26°C° 0 mm 5 mps 656 mmHg 45%
    16:00 +23°C° 0 mm 5 mps 656 mmHg 51%
    17:00 +22°C° 0 mm 4 mps 656 mmHg 56%
    18:00 +20°C° 0 mm 4 mps 655 mmHg 61%
    19:00 +19°C° 0 mm 3 mps 655 mmHg 64%
    20:00 +18°C° 0 mm 3 mps 655 mmHg 66%
    21:00 +17°C° 0 mm 3 mps 655 mmHg 68%
    22:00 +16°C° 0 mm 2 mps 655 mmHg 65%
    23:00 +16°C° 0 mm 2 mps 655 mmHg 62%
    Show more